sat.trackr.live / text

‹ back to catalog

STARLINK-34336

NORAD 64462 · 2025-130AA

PAYLOAD ACTIVE UNKNOWN

§ Identity

Operator
Country
US
Launch date
2025-06-18
Launch site
AFETR
Launch vehicle
Mass (kg)
RCS (m²)

Purposes: comms

External: N2YO · Heavens-Above · Gunter

§ Orbital elements

Epoch: 2026-09-20T07:14:53.859264Z

Period
94.01 min
Inclination
53.1577°
Eccentricity
0.0001259
Mean motion
15.31717851 rev/d
Perigee alt
469.8 km
Apogee alt
471.5 km
Semi-major
6,848.8 km
B*
4.5637e-4
RAAN
265.6112°
Arg perigee
92.4577°
Mean anomaly
267.6569°
Rev number
7,048

§ Raw data

STARLINK-343361 64462U 25130AA  26263.30201226  .00013831  00000+0  45637-3 0  99912 64462  53.1577 265.6112 0001259  92.4577 267.6569 15.31717851 70485

JSON: /api/v1/satellites/64462 · /tle

For live sub-satellite position, see the globe view (requires WebGL).

§ Visibility from observer

Set your observer location to see the next 7 days of passes ≥ 10°. The values pass through the URL so the page stays shareable.

No JS? Fill the form by hand. The geolocation button needs JavaScript.